Change the Weather History Date:

Sunday, March 17, 2013

  Actual Average Record
Temperature  
Mean Temperature 62 °F -  
Max Temperature 75 °F 62 °F 84 °F (2015)
Min Temperature 52 °F 39 °F 26 °F (1954)
Degree Days  
Heating Degree Days 2    
Growing Degree Days 12 (Base 50)    
Moisture  
Dew Point 47 °F    
Average Humidity 55    
Maximum Humidity 75    
Minimum Humidity 38    
Precipitation  
Precipitation 0.00 in - - ()
Sea Level Pressure  
Sea Level Pressure 29.93 in    
Wind  
Wind Speed 9 mph (SW)    
Max Wind Speed 17 mph    
Max Gust Speed 21 mph    
Visibility 10 miles    
Events      
Averages and records for this station are not official NWS values.
T = Trace of Precipitation, MM = Missing Value Source: NWS Daily Summary

Daily Weather History Graph

Daily Weather History Graph

Search for Another Location

Airport or City:

Trip Planner

Search our weather history database for the weather conditions in past years. The results will help you decide how hot, cold, wet, or windy it might be!

Date:

Astronomy

Mar. 17, 2013 Rise Set
Actual Time 7:38 AM EDT 7:40 PM EDT
Civil Twilight 7:13 AM EDT 8:05 PM EDT
Nautical Twilight 6:44 AM EDT 8:34 PM EDT
Astronomical Twilight 6:14 AM EDT 9:04 PM EDT
Moon 11:03 AM EDT (3/17) 12:33 AM EDT (3/17)
Length of Visible Light 12h 52m
Length of Day
12h 02m
Waxing Crescent, 31% of the Moon is Illuminated
Mar 17
Waxing Crescent
Mar 19
First Quarter
Mar 27
Full
Apr 3
Last Quarter
Apr 10
New

Hourly Weather History & Observations

Time (EDT) Temp. Dew Point Humidity Pressure Visibility Wind Dir Wind Speed Gust Speed Precip Events Conditions
12:56 AM 63.0 °F 41.0 °F 45% 29.91 in 10.0 mi WSW 10.4 mph - N/A   Clear
1:56 AM 61.0 °F 41.0 °F 48% 29.92 in 10.0 mi WSW 6.9 mph - N/A   Clear
2:56 AM 59.0 °F 41.0 °F 51% 29.93 in 10.0 mi WSW 6.9 mph - N/A   Clear
3:56 AM 55.9 °F 41.0 °F 57% 29.92 in 10.0 mi SW 4.6 mph - N/A   Clear
4:56 AM 52.0 °F 42.1 °F 69% 29.91 in 10.0 mi SSW 6.9 mph - N/A   Clear
5:56 AM 53.1 °F 41.0 °F 64% 29.91 in 10.0 mi SW 5.8 mph - N/A   Clear
6:56 AM 55.0 °F 44.1 °F 67% 29.94 in 10.0 mi SW 10.4 mph - N/A   Clear
7:56 AM 54.0 °F 46.0 °F 75% 29.95 in 10.0 mi SW 6.9 mph - N/A   Clear
8:56 AM 59.0 °F 46.9 °F 64% 29.96 in 10.0 mi SW 11.5 mph - N/A   Clear
9:56 AM 63.0 °F 48.9 °F 60% 29.97 in 10.0 mi WSW 13.8 mph - N/A   Clear
10:56 AM 66.0 °F 50.0 °F 56% 29.97 in 10.0 mi WSW 17.3 mph - N/A   Clear
11:56 AM 69.1 °F 50.0 °F 51% 29.96 in 10.0 mi West 9.2 mph - N/A   Clear
12:56 PM 70.0 °F 50.0 °F 49% 29.95 in 10.0 mi WSW 10.4 mph - N/A   Clear
1:56 PM 72.0 °F 50.0 °F 46% 29.93 in 10.0 mi West 10.4 mph - N/A   Clear
2:56 PM 73.0 °F 48.0 °F 41% 29.90 in 10.0 mi SW 15.0 mph - N/A   Partly Cloudy
3:56 PM 73.9 °F 46.9 °F 38% 29.88 in 10.0 mi SSW 17.3 mph - N/A   Partly Cloudy
4:56 PM 73.0 °F 48.9 °F 42% 29.89 in 10.0 mi SW 13.8 mph 20.7 mph N/A   Clear
5:56 PM 71.1 °F 48.0 °F 44% 29.89 in 10.0 mi SW 12.7 mph - N/A   Clear
6:56 PM 70.0 °F 48.9 °F 47% 29.90 in 10.0 mi SW 9.2 mph - N/A   Clear
7:56 PM 66.0 °F 51.1 °F 59% 29.92 in 10.0 mi South 8.1 mph - N/A   Scattered Clouds
8:56 PM 64.9 °F 48.9 °F 56% 29.94 in 10.0 mi South 6.9 mph - N/A   Clear
9:56 PM 63.0 °F 51.1 °F 65% 29.96 in 10.0 mi SSW 5.8 mph - N/A   Clear
10:56 PM 60.1 °F 50.0 °F 69% 29.97 in 10.0 mi South 4.6 mph - N/A   Clear
11:56 PM 61.0 °F 50.0 °F 67% 29.99 in 10.0 mi Calm Calm - N/A   Clear